Tracking 19177 objects as of 24-May-2018
HD Live streaming from Space Station
objects crossing your sky now

OPS 8579 (DMSP 5B F5)

Track OPS 8579 (DMSP 5B F5) now!
10-day predictions
OPS 8579 (DMSP 5B F5) is classified as:


NORAD ID: 7218
Int'l Code: 1974-015A
Perigee: 756.4 km
Apogee: 837.3 km
Inclination: 99.0 °
Period: 100.7 minutes
Semi major axis: 7167 km
RCS: 1.341 m2 (large)
Launch date: March 16, 1974
Source: United States (US)
Launch site: AIR FORCE WESTERN TEST RANGE (AFWTR)
aabbcc
Your satellite tracking list
Your tracking list is empty




NASA's NSSDC Master Catalog

Two Line Element Set (TLE):
1  7218U 74015A   18143.43244228 +.00000004 +00000-0 +19286-4 0  9995
2  7218 099.0029 079.0487 0056419 219.5960 140.1095 14.30605767299482
Source of the keplerian elements: AFSPC